Wind_Speed
41 43 43 42 41 40 40 39 39 38 38 37 37 36 36 36 37 39 41 43 44 44 44 43 43 42 40 37 34 33 34 35 35 35 34 32 31 29 27 25 23 22 20 18 16 14 12 11 9 8 7 7 6 6 7 8 9 10 11 12 12 12 12 12 11 10 10 10 10
40 42 42 41 40 39 39 38 38 38 37 36 35 34 33 34 36 38 41 43 44 44 43 42 42 41 39 36 34 33 34 36 36 35 34 32 30 28 26 25 23 21 19 17 16 14 12 11 9 8 7 7 6 6 7 8 9 10 11 12 12 12 12 11 10 10 10 10 11
40 41 41 41 40 39 39 38 37 36 35 35 34 32 32 32 35 38 40 42 42 42 42 42 42 41 38 35 33 33 35 36 36 35 34 32 30 28 26 24 23 21 19 17 15 13 12 11 10 8 8 7 6 6 7 8 9 10 11 12 12 12 11 10 10 10 10 10 11
40 41 41 41 40 39 38 37 36 35 34 34 32 31 31 32 34 37 38 39 40 41 41 42 42 40 37 34 33 34 36 36 36 35 33 32 29 27 26 24 22 20 18 16 15 13 12 11 10 9 8 7 6 6 7 8 9 10 11 12 12 12 11 11 10 10 10 10 11
40 41 41 41 40 38 37 36 35 34 33 32 31 30 30 32 34 36 37 39 40 41 41 41 41 38 35 33 33 34 36 36 35 34 33 31 28 27 25 24 22 20 18 16 15 13 12 11 10 9 8 6 6 5 6 7 9 10 11 12 12 12 12 11 11 10 10 11 11
40 41 40 40 39 38 37 35 34 33 32 31 30 29 30 32 34 35 37 39 40 40 40 40 39 36 34 33 33 36 37 37 36 34 32 29 28 27 25 23 21 19 18 16 15 13 12 11 10 9 8 7 6 6 6 7 9 10 12 13 13 12 12 11 11 11 11 11 11
41 40 40 39 38 37 36 35 33 32 31 29 29 29 30 31 32 34 36 37 38 39 39 39 37 35 33 34 35 37 38 38 36 34 31 28 28 27 25 23 21 19 17 16 15 13 12 11 9 8 8 7 6 6 7 8 9 11 12 13 13 13 12 12 12 12 11 11 12
40 40 39 38 37 37 36 35 33 31 30 28 28 28 29 30 31 33 35 36 38 38 38 37 35 34 34 35 38 39 39 38 36 33 30 29 28 27 25 23 21 19 18 16 14 13 12 11 9 8 8 7 7 7 7 8 10 11 12 13 13 13 13 12 12 12 12 12 13
40 39 39 38 37 37 36 35 32 30 28 27 27 27 28 29 31 33 35 36 36 36 35 35 34 34 35 38 40 40 39 37 34 32 31 30 29 27 25 23 21 19 18 16 15 13 12 10 9 8 8 7 7 7 8 9 10 11 12 13 13 13 13 13 13 13 13 13 14
40 40 39 39 38 37 36 34 31 29 27 26 26 27 28 30 32 33 34 34 34 34 34 35 35 36 37 39 40 39 37 35 33 32 32 31 29 27 24 23 21 20 18 17 15 13 11 10 9 8 7 7 7 7 8 9 10 11 12 12 13 13 13 13 13 13 13 14 14
41 41 40 39 38 37 35 33 30 28 26 26 26 28 29 31 32 33 33 32 33 34 35 35 36 37 37 38 38 36 35 33 33 33 32 31 28 26 24 23 21 20 18 16 14 13 11 9 8 7 7 7 7 8 9 10 11 11 12 13 13 13 12 12 12 13 13 14 15
42 42 41 39 37 35 33 31 29 28 26 26 27 29 30 32 32 32 32 32 33 34 34 34 35 36 36 37 36 34 33 33 33 33 31 30 28 26 24 22 21 19 17 15 13 12 10 9 8 7 7 7 8 8 9 11 12 12 13 13 13 13 13 12 13 13 14 14 15
43 41 39 36 34 31 30 30 29 28 27 27 28 30 31 32 32 32 32 32 32 32 32 32 33 34 35 35 34 34 34 34 34 32 31 29 27 25 23 22 20 18 16 14 12 11 9 8 8 7 7 7 8 9 10 11 12 13 14 14 14 14 13 13 13 14 14 15 15
41 38 36 34 32 30 29 29 28 28 28 29 30 31 32 32 31 31 30 30 31 31 31 30 31 33 34 34 34 35 35 35 34 32 30 28 26 24 23 21 19 17 15 13 11 10 9 8 7 7 7 8 9 10 11 12 12 13 13 14 14 14 13 13 14 14 14 15 15
36 34 33 32 30 29 28 28 28 29 29 30 31 32 32 31 30 29 29 29 30 29 30 30 32 33 34 34 35 36 37 36 33 31 29 27 25 23 22 20 18 15 13 12 10 9 8 8 7 7 7 8 9 10 11 12 12 12 13 13 13 13 13 14 14 14 15 15 15
33 31 31 30 29 28 28 29 29 30 30 31 32 32 31 30 29 29 29 30 30 29 30 31 32 33 34 35 36 37 36 34 32 29 28 26 24 22 20 18 16 14 12 11 10 9 8 7 7 7 7 8 9 10 11 11 12 12 12 12 13 13 13 14 14 15 15 15 15
30 30 29 29 29 29 30 31 31 31 31 31 31 31 30 29 29 29 30 30 30 31 31 32 32 33 34 35 36 36 35 32 30 28 27 25 23 21 19 17 15 13 11 10 9 8 8 7 6 6 7 8 9 10 10 11 11 11 12 12 13 13 14 14 14 15 15 16 16
30 30 30 30 30 31 32 32 32 31 31 31 30 30 29 29 29 29 30 30 31 31 32 31 31 32 33 35 35 34 33 31 29 27 26 24 22 20 17 15 13 12 10 10 9 8 7 6 6 7 8 9 9 10 10 10 11 11 12 12 13 14 14 14 15 15 16 16 17
31 31 31 31 32 33 33 33 32 31 30 30 29 29 28 28 28 29 29 30 29 30 30 29 30 30 32 34 33 32 30 29 28 26 24 22 20 18 16 14 12 11 10 9 8 7 6 6 7 7 8 9 9 10 10 10 11 12 12 13 14 14 15 15 15 16 16 17 17
32 33 33 33 33 33 33 32 31 30 30 29 28 28 28 28 27 28 29 29 28 27 27 27 28 30 31 32 31 30 28 27 26 24 22 20 18 16 14 13 11 10 9 8 7 6 6 7 7 8 9 9 9 10 10 10 11 12 13 14 14 15 15 16 16 16 16 17 17
34 34 34 34 33 33 32 31 30 29 29 28 28 27 27 27 27 27 27 27 26 25 25 26 28 29 30 30 29 28 27 25 24 22 21 19 17 15 13 11 10 9 8 7 6 6 7 7 8 8 9 9 9 9 10 11 12 13 14 14 15 15 16 16 16 16 16 17 18
34 34 33 33 32 31 30 29 29 28 28 27 27 27 27 27 27 26 26 25 25 25 26 27 27 28 28 28 27 26 25 24 22 21 19 17 15 13 12 10 9 8 7 7 6 6 7 8 8 9 9 9 10 10 11 12 13 13 14 14 15 15 15 15 16 16 17 17 18
34 33 32 31 30 30 29 28 28 27 27 27 27 27 27 27 26 26 25 25 25 26 27 27 27 27 27 26 26 25 24 23 22 20 18 16 14 12 10 9 8 7 7 6 7 7 8 8 9 9 10 10 11 12 12 13 14 14 14 14 14 15 15 15 16 16 17 18 18
32 31 30 29 28 28 27 27 27 27 27 27 27 27 27 27 26 26 25 25 26 27 27 27 26 26 25 25 24 24 23 22 20 18 16 14 12 10 9 8 7 7 7 7 7 8 9 9 10 10 11 11 12 13 13 14 13 13 14 14 15 15 15 16 16 17 18 18 18
30 29 28 27 27 26 26 26 26 26 27 27 27 26 26 26 25 25 25 25 26 26 26 25 25 25 25 24 23 22 21 20 18 16 14 12 11 9 8 7 7 7 7 8 8 9 10 10 11 11 12 12 13 13 13 13 13 13 14 15 15 16 16 17 17 18 18 18 18
29 28 27 26 26 26 26 26 26 26 26 26 26 25 25 25 24 24 24 25 25 25 25 25 25 25 24 24 22 21 19 18 16 14 12 11 9 8 7 7 7 7 8 8 9 10 11 11 12 12 13 13 13 13 12 12 13 14 15 15 16 17 17 18 18 19 19 18 18
27 27 27 27 27 27 26 26 26 26 26 26 25 25 24 24 23 23 24 25 25 25 26 26 25 25 23 22 21 20 18 16 14 13 11 9 8 7 6 6 7 8 8 9 10 11 12 12 13 13 13 13 13 12 12 12 13 14 15 16 17 17 18 18 19 19 18 18 17
28 28 28 27 27 27 26 26 26 26 26 25 25 24 23 23 23 24 25 25 26 26 26 26 25 24 22 21 20 18 17 15 13 11 9 8 7 6 6 7 7 8 9 10 10 11 12 12 13 13 13 13 12 12 12 13 14 15 15 16 17 18 18 19 19 18 18 17 16
29 29 28 28 27 27 26 26 26 26 25 25 24 23 22 23 24 25 25 26 26 26 26 25 24 23 22 20 19 17 14 12 11 9 8 6 6 6 6 7 8 9 9 10 11 11 12 12 12 12 12 12 12 12 13 14 15 15 16 17 18 18 18 18 18 18 17 16 15
29 28 28 27 27 27 26 26 25 25 24 23 23 23 24 24 25 26 26 26 26 26 25 24 23 22 20 19 16 14 12 10 8 7 6 5 5 6 7 7 8 9 10 10 11 11 11 11 11 11 12 12 13 13 14 14 15 16 17 17 18 18 18 17 17 16 16 15 15
29 28 28 27 27 27 26 25 24 23 23 23 24 25 26 26 27 27 26 26 25 25 24 23 22 20 18 16 13 11 9 8 6 5 5 5 6 7 7 8 8 9 10 10 10 11 10 10 10 11 12 13 13 14 14 15 16 17 17 17 17 17 17 16 16 15 15 14 14
28 27 27 27 26 26 25 24 24 24 25 25 26 27 28 28 28 27 26 25 25 24 23 21 19 17 15 13 11 9 7 6 5 4 5 6 7 8 8 8 9 9 10 10 10 9 10 10 11 11 12 13 14 14 15 16 16 17 17 17 16 16 15 15 15 14 14 13 13
26 25 25 25 26 26 25 26 26 26 27 27 28 28 28 28 28 27 26 25 23 22 20 18 16 14 12 10 8 7 5 4 4 5 6 7 8 9 9 9 9 9 9 9 9 9 9 10 11 12 13 14 14 15 16 16 16 16 16 16 15 15 14 14 14 13 13 13 14
24 23 24 25 26 27 27 28 28 28 28 28 28 27 27 27 27 26 25 24 22 19 17 15 13 11 10 8 6 5 4 4 5 6 7 8 9 9 10 9 9 8 8 8 8 9 10 11 12 13 13 14 15 15 16 16 16 16 15 15 14 14 14 13 13 13 13 13 14
24 23 24 25 27 28 29 28 28 28 27 27 27 27 26 26 26 25 23 21 19 17 15 13 11 10 8 6 5 4 4 5 6 7 7 8 9 9 9 8 7 7 7 8 8 10 11 12 13 13 14 14 15 15 15 15 15 15 14 14 14 14 14 14 13 13 13 14 14
26 25 25 27 28 29 28 28 27 27 26 27 27 27 26 25 24 22 20 18 17 15 13 12 10 8 6 5 4 4 5 6 6 7 7 7 7 7 7 7 7 7 7 8 9 10 11 12 13 14 14 15 15 15 15 15 14 14 14 14 14 14 14 14 14 13 13 14 15
28 27 28 28 29 28 27 27 26 27 27 27 27 26 25 24 22 19 17 16 14 13 11 9 7 6 5 5 5 5 6 6 6 6 6 5 5 5 5 6 7 7 8 9 10 11 12 13 14 14 14 14 14 14 14 14 14 14 14 14 14 14 14 14 14 14 14 15 15
29 29 29 29 29 28 27 27 27 28 28 27 26 24 23 21 19 17 15 14 12 10 8 6 5 5 5 5 5 5 5 4 4 4 4 4 3 4 5 6 7 8 9 10 11 12 12 13 14 14 14 14 14 14 14 14 14 14 14 14 14 14 14 14 14 14 14 15 16
28 29 29 29 28 28 28 28 28 28 27 25 24 22 20 18 17 15 13 11 9 7 6 5 5 5 5 4 4 3 3 3 3 3 2 3 3 4 5 6 7 8 9 10 11 12 12 13 14 14 14 14 14 14 14 14 14 14 14 13 13 13 13 13 13 14 14 15 15
28 28 27 27 27 27 27 27 26 25 23 22 21 20 18 16 15 13 11 9 7 6 5 5 4 3 2 1 2 3 3 3 2 2 2 3 3 4 5 6 7 8 9 10 11 12 12 13 13 14 14 14 14 14 14 14 13 13 13 12 12 12 12 12 13 13 14 13 13
27 26 25 25 24 24 24 23 22 21 20 19 19 17 16 14 12 10 8 7 6 6 5 4 2 1 2 3 3 2 2 1 1 1 2 3 4 5 6 7 8 8 9 10 11 11 12 12 13 13 14 14 14 13 13 13 13 12 12 12 12 12 13 13 13 13 13 12 11
Wind_Direction
212 215 217 219 220 222 224 226 229 231 232 232 231 231 229 228 225 222 220 217 215 214 214 214 214 213 210 208 203 197 194 193 194 196 198 199 200 202 203 205 207 208 210 212 214 217 222 227 234 242 252 264 280 295 308 318 327 331 334 335 337 338 338 336 333 328 322 316 312
212 215 217 218 220 221 223 225 228 230 231 232 233 233 233 231 228 224 221 217 215 214 214 214 213 212 210 208 205 199 194 193 194 196 197 199 200 201 202 204 206 207 209 212 214 218 222 227 234 242 251 264 280 296 309 318 326 331 333 334 334 335 335 333 329 324 319 314 312
211 214 216 218 219 220 222 224 227 229 230 231 231 232 233 232 229 225 221 218 216 214 214 214 212 211 210 210 205 198 193 193 195 196 197 198 199 200 201 203 204 206 208 210 214 218 222 228 235 243 252 265 281 297 310 318 325 329 331 331 331 332 331 329 324 320 316 312 310
211 213 216 217 218 220 223 225 227 229 229 229 229 229 230 229 227 224 221 218 215 214 214 213 211 210 210 210 205 198 194 194 196 197 197 198 198 199 200 202 203 204 206 209 213 217 223 229 236 244 253 265 282 297 310 318 323 326 328 328 329 329 328 325 321 318 313 308 306
211 213 216 217 218 220 223 226 228 229 229 228 228 228 227 226 224 222 219 216 214 214 213 212 210 209 211 212 206 198 194 195 197 198 198 198 198 198 200 201 202 203 205 208 212 217 223 230 237 245 253 264 279 294 306 315 321 324 325 326 327 328 327 323 319 315 311 307 304
210 213 215 216 218 219 222 225 227 228 227 227 227 226 225 224 222 221 219 216 215 214 212 210 209 210 213 213 205 198 194 196 198 199 199 198 198 199 200 201 201 203 205 208 213 218 224 230 237 245 253 262 275 288 300 311 318 323 325 325 326 326 325 321 317 313 309 305 303
209 212 214 215 216 218 220 222 224 225 225 226 227 227 225 224 223 221 220 219 217 215 212 210 209 211 213 209 201 196 194 196 198 198 198 198 199 200 201 201 201 203 205 209 213 218 224 230 236 244 253 262 274 288 299 310 317 322 325 325 324 323 321 317 313 310 306 304 303
208 211 213 215 216 218 220 220 220 220 222 224 226 226 226 224 223 222 221 220 219 216 213 210 209 210 209 204 197 195 195 196 197 196 197 199 200 201 201 202 202 203 206 210 214 218 224 230 236 244 254 265 279 291 303 313 319 322 324 324 322 321 318 315 312 309 307 306 306
207 209 212 214 217 220 222 220 218 217 219 223 224 225 224 223 222 221 221 220 219 216 212 207 206 206 204 200 197 196 196 196 195 194 195 198 201 202 202 202 203 205 207 211 214 218 224 230 237 246 256 269 283 296 306 314 320 322 322 322 321 319 317 315 312 311 309 309 308
206 208 210 212 216 221 222 219 216 216 219 222 222 222 222 221 220 220 219 219 216 212 208 205 204 204 203 201 199 197 196 194 193 193 195 198 201 202 203 204 205 206 208 211 215 219 224 232 239 248 259 273 286 299 307 313 318 319 319 318 318 316 313 311 310 309 308 308 307
206 207 208 210 216 220 220 216 214 214 216 219 219 219 219 218 217 217 216 215 212 209 207 206 206 206 205 203 200 197 194 192 193 194 196 198 200 202 204 205 206 206 208 211 215 220 225 232 240 250 262 275 287 297 305 310 315 316 317 316 315 313 310 307 306 305 305 305 306
205 205 208 213 218 218 215 213 212 212 213 215 216 217 216 216 214 214 213 212 210 209 209 209 208 207 204 202 198 195 192 192 194 196 197 199 200 202 203 204 204 204 206 210 215 220 226 233 242 252 265 277 288 297 304 310 314 316 316 316 315 313 310 307 305 304 304 305 306
203 205 210 216 216 212 210 213 212 211 211 212 214 215 214 213 212 211 211 210 209 209 209 209 207 204 200 197 194 192 192 193 195 197 198 199 200 200 200 200 200 202 205 209 215 220 227 236 245 255 269 282 292 300 306 312 315 316 317 316 315 314 311 308 307 306 305 306 306
205 208 212 216 213 209 209 213 213 211 210 210 212 213 212 211 209 209 208 208 207 206 205 203 201 199 197 194 192 192 193 195 197 198 198 199 198 198 197 197 198 200 204 209 216 223 231 240 250 261 275 289 298 305 309 314 316 317 316 315 314 312 310 308 306 305 305 305 305
208 211 214 215 211 209 211 214 213 211 209 209 211 212 211 208 206 205 203 202 202 202 200 198 196 195 195 194 194 194 196 197 197 197 197 197 196 195 195 195 197 200 204 211 218 227 235 244 255 269 283 296 304 309 312 315 316 315 314 312 310 308 306 305 304 303 303 303 304
210 212 213 211 210 212 215 215 212 210 209 209 210 210 208 205 202 199 197 197 198 198 197 196 195 195 196 196 196 197 198 197 196 195 195 194 193 192 193 195 197 201 206 214 223 231 240 248 259 274 289 300 306 310 312 313 312 311 309 307 306 304 303 302 302 303 303 304 305
212 211 210 210 212 215 215 213 210 208 207 207 207 206 204 201 199 196 194 195 196 197 197 197 197 197 196 197 198 198 197 194 192 192 192 191 190 190 192 194 198 203 210 219 227 235 242 252 265 279 292 301 306 308 309 309 308 306 305 304 303 302 302 303 304 304 305 306 306
209 209 209 211 213 213 211 208 206 205 205 204 203 202 201 199 196 194 194 195 197 197 197 197 198 198 198 198 198 197 193 190 188 188 188 188 188 190 192 195 200 207 215 223 229 236 245 258 272 286 295 301 305 306 307 307 306 306 305 304 304 304 304 305 305 306 307 308 308
207 208 208 208 208 206 204 202 202 201 200 199 199 198 197 196 195 194 194 195 197 197 197 197 197 198 197 197 194 190 187 186 185 184 184 185 187 189 193 198 204 212 219 225 231 239 251 266 280 290 298 303 305 307 308 309 308 308 307 307 306 306 306 306 306 307 308 308 308
204 204 203 202 200 198 197 197 197 196 195 194 194 193 192 192 193 193 194 194 195 195 195 195 194 193 192 190 185 182 181 181 181 180 181 184 186 190 194 201 208 215 221 226 234 246 261 275 287 296 301 305 307 308 309 310 309 309 309 308 308 307 306 305 306 306 307 307 307
196 196 195 194 193 192 192 192 191 190 190 190 189 188 188 188 189 191 191 191 189 189 189 189 188 186 183 180 177 175 175 177 177 178 180 183 187 191 197 204 211 217 223 231 242 258 273 285 293 298 302 305 306 307 307 308 308 308 308 307 306 305 304 304 305 306 306 305 304
186 187 187 187 188 187 187 186 185 185 185 185 185 185 185 185 186 186 185 184 182 181 181 180 179 177 175 173 172 171 172 173 174 177 180 184 188 194 201 207 214 221 230 241 254 269 281 288 294 297 300 302 304 305 306 307 309 309 308 306 304 302 303 304 305 305 304 303 301
179 180 181 182 182 182 181 180 180 181 181 181 181 182 183 184 183 182 180 177 176 176 175 175 174 172 170 169 170 170 170 171 174 177 181 185 190 196 203 210 217 226 238 251 264 274 283 289 293 296 299 302 305 307 310 312 313 311 308 303 301 301 302 303 303 303 302 301 298
175 176 176 176 176 175 176 176 177 178 179 179 180 182 183 183 181 178 176 175 175 175 173 171 169 168 167 167 168 170 171 174 177 180 183 188 193 199 206 213 222 234 247 260 271 279 285 290 294 298 302 306 310 313 316 317 315 310 304 300 299 300 302 302 303 302 301 299 296
171 171 171 170 171 172 174 175 176 177 179 180 181 182 182 180 177 176 176 175 174 172 169 167 165 165 165 166 167 170 174 178 181 184 187 191 196 202 209 219 231 245 258 270 279 285 290 294 298 303 307 312 316 319 319 316 310 304 300 299 300 302 303 303 304 303 301 299 296
167 167 167 168 170 171 173 175 177 178 179 181 181 180 177 175 175 175 175 172 169 166 164 163 163 164 164 165 168 172 176 181 185 188 191 193 198 206 217 230 245 258 270 279 285 291 296 300 305 309 314 318 321 321 317 309 302 299 300 302 303 304 305 305 305 305 303 299 296
164 165 166 168 170 171 173 175 177 178 178 178 176 174 172 172 172 171 168 164 161 160 160 162 163 164 165 167 172 176 180 184 187 190 193 195 200 212 228 244 257 269 279 286 292 297 302 307 312 316 319 321 321 316 309 302 300 301 303 305 305 306 307 307 306 305 303 299 296
164 165 166 168 169 171 172 175 175 175 174 173 171 171 170 169 167 163 160 157 156 158 160 162 163 165 167 172 176 180 183 186 188 190 193 197 206 222 242 257 269 278 286 293 299 304 310 315 319 321 321 319 315 310 304 302 302 304 306 307 307 308 308 308 307 305 302 298 295
164 166 167 168 168 169 171 172 172 172 171 170 169 168 165 161 158 155 154 154 156 158 160 162 164 168 172 175 178 181 183 185 187 190 195 204 219 239 256 269 279 287 295 301 307 312 317 321 322 320 317 313 309 306 305 306 307 308 308 309 309 310 310 309 307 305 301 297 294
165 166 166 167 167 167 168 170 170 170 169 167 163 159 155 153 151 151 152 154 157 159 162 165 168 172 174 176 178 179 180 182 187 194 206 222 240 256 269 280 289 296 303 309 315 319 322 322 319 314 310 306 306 307 308 309 309 310 310 310 311 311 311 309 306 303 298 296 294
165 166 166 165 165 165 165 166 166 164 162 158 154 151 150 149 149 150 152 155 158 162 165 169 172 174 175 175 175 175 177 183 194 209 230 248 261 271 279 288 297 303 310 316 320 322 321 317 312 307 305 305 307 309 311 311 311 311 311 312 312 312 311 308 304 300 297 295 295
167 166 165 163 162 161 160 159 158 155 153 151 150 149 148 148 149 151 155 159 162 166 168 171 172 173 172 171 171 174 180 191 209 233 254 266 274 280 286 295 303 311 316 320 322 319 315 310 306 305 305 308 310 312 312 312 312 312 313 313 314 313 310 307 303 299 296 294 293
167 165 163 160 157 155 153 152 151 150 149 149 149 149 149 149 150 153 158 162 166 167 168 169 170 170 169 169 172 179 191 210 234 254 266 274 281 288 296 305 312 318 322 322 318 313 308 306 305 307 309 311 312 313 313 312 313 313 314 315 315 313 310 305 301 298 295 293 291
164 162 159 156 152 150 149 148 148 149 149 149 149 149 150 151 153 156 160 163 165 166 166 167 168 168 170 173 181 193 214 237 253 264 273 282 291 300 309 318 323 325 324 319 312 308 307 307 309 310 312 313 313 313 313 314 314 315 316 317 316 313 309 304 300 297 294 292 289
159 157 154 152 149 147 146 147 147 148 149 149 149 150 151 153 155 158 161 163 165 165 165 166 168 172 176 185 199 220 240 254 264 273 283 296 307 316 324 329 328 324 319 313 310 310 310 311 312 312 313 314 314 314 314 315 316 317 318 319 317 313 308 304 299 295 292 290 288
155 153 150 147 145 143 143 144 146 147 148 148 149 150 152 155 158 160 162 164 165 166 166 167 171 177 187 203 223 240 252 263 274 287 301 315 326 330 331 328 323 318 314 313 313 313 313 313 313 314 314 315 315 316 316 318 318 319 320 319 317 313 308 303 297 292 289 288 287
150 147 144 140 139 139 140 142 144 146 148 149 150 152 155 157 159 160 162 163 165 166 168 171 179 191 208 225 239 252 263 276 292 311 328 339 342 335 325 319 317 316 316 317 316 316 315 315 314 314 316 317 318 319 319 320 320 321 320 318 316 312 308 303 298 292 288 287 287
143 140 137 135 135 136 139 143 146 149 150 152 154 156 157 159 158 158 159 162 166 171 176 186 199 215 230 243 255 268 285 306 328 346 354 349 335 322 316 316 317 318 319 318 318 317 317 316 316 317 318 320 321 322 322 322 321 320 318 316 314 311 307 304 301 297 294 292 291
137 135 134 134 135 138 142 147 151 153 155 155 156 157 158 159 158 158 159 164 171 181 192 206 217 228 241 256 277 308 341 2 10 7 354 330 316 313 316 318 319 319 319 319 318 318 318 319 319 320 322 323 324 323 323 322 320 319 317 315 313 310 307 305 304 304 303 301 299
135 134 134 135 138 142 147 152 155 156 156 155 155 156 157 159 159 160 163 169 179 191 203 212 219 228 248 321 11 23 29 32 23 356 328 314 314 317 320 321 321 320 319 320 320 321 322 323 324 324 325 325 325 324 322 320 319 318 316 315 314 312 310 308 309 310 311 310 308
135 136 137 138 141 145 148 151 152 152 152 152 153 155 157 160 162 165 170 177 186 194 200 202 200 153 56 50 48 47 43 33 354 327 320 320 321 322 323 324 324 323 322 323 324 326 327 328 328 327 325 325 324 323 321 320 320 319 318 318 318 317 317 317 319 320 321 320 319
Height
1448 1449 1451 1454 1456 1458 1459 1460 1461 1461 1462 1463 1463 1464 1465 1466 1467 1468 1469 1470 1470 1470 1471 1472 1473 1474 1475 1477 1479 1481 1484 1487 1489 1490 1491 1493 1494 1495 1497 1498 1499 1500 1500 1500 1500 1500 1501 1501 1502 1502 1503 1503 1503 1503 1503 1503 1503 1503 1503 1503 1503 1503 1502 1502 1502 1501 1501 1501 1501
1447 1449 1451 1453 1455 1456 1457 1458 1459 1460 1460 1461 1462 1463 1464 1465 1466 1467 1467 1468 1469 1470 1471 1472 1472 1473 1475 1477 1478 1480 1483 1486 1488 1489 1490 1491 1493 1494 1495 1497 1498 1499 1499 1500 1500 1500 1500 1500 1501 1501 1502 1502 1502 1502 1502 1502 1502 1502 1502 1502 1502 1501 1501 1501 1501 1500 1500 1500 1500
1446 1448 1450 1451 1453 1454 1455 1456 1457 1458 1459 1460 1461 1462 1463 1464 1465 1465 1466 1467 1468 1470 1470 1471 1472 1473 1475 1477 1478 1480 1483 1485 1487 1488 1489 1490 1491 1493 1495 1495 1496 1497 1498 1499 1499 1499 1499 1499 1500 1500 1501 1501 1501 1501 1501 1501 1501 1501 1501 1501 1501 1500 1500 1500 1500 1500 1499 1499 1499
1446 1447 1448 1450 1451 1452 1454 1454 1455 1456 1457 1458 1459 1460 1462 1463 1463 1464 1465 1467 1468 1469 1470 1471 1472 1473 1475 1477 1478 1480 1483 1485 1486 1487 1488 1490 1491 1492 1494 1495 1496 1496 1497 1497 1498 1498 1498 1498 1499 1500 1500 1500 1500 1500 1500 1500 1500 1500 1500 1500 1500 1500 1499 1499 1499 1499 1499 1498 1498
1445 1446 1447 1448 1450 1451 1452 1453 1454 1455 1455 1456 1458 1459 1460 1461 1462 1463 1465 1466 1467 1468 1469 1470 1471 1473 1475 1476 1478 1480 1483 1485 1486 1487 1488 1489 1490 1492 1493 1494 1495 1496 1496 1496 1496 1496 1497 1497 1498 1499 1499 1499 1499 1499 1499 1499 1499 1499 1499 1499 1499 1498 1498 1498 1498 1497 1497 1497 1497
1444 1445 1446 1447 1448 1449 1450 1451 1452 1453 1454 1455 1456 1457 1459 1460 1461 1462 1464 1465 1465 1466 1468 1469 1470 1472 1474 1475 1477 1480 1482 1485 1486 1487 1488 1489 1490 1492 1493 1494 1495 1495 1495 1496 1496 1496 1496 1496 1497 1498 1498 1498 1499 1498 1498 1498 1498 1498 1498 1497 1497 1497 1497 1497 1496 1496 1496 1496 1496
1442 1444 1445 1446 1447 1448 1448 1449 1450 1451 1452 1454 1455 1456 1457 1458 1460 1461 1462 1463 1464 1465 1467 1468 1470 1471 1472 1474 1476 1479 1481 1483 1484 1485 1487 1489 1490 1491 1492 1493 1494 1494 1495 1495 1495 1495 1495 1496 1496 1497 1497 1497 1498 1497 1497 1497 1497 1497 1497 1496 1496 1496 1496 1495 1495 1495 1495 1495 1495
1441 1443 1444 1445 1445 1446 1446 1447 1448 1449 1451 1452 1454 1455 1456 1457 1459 1460 1461 1462 1463 1465 1466 1468 1469 1470 1471 1473 1475 1478 1480 1481 1482 1484 1486 1489 1490 1491 1491 1492 1493 1493 1494 1494 1494 1494 1495 1495 1495 1496 1496 1496 1496 1496 1496 1496 1496 1496 1495 1495 1495 1495 1494 1494 1494 1494 1493 1493 1493
1439 1441 1442 1443 1444 1445 1445 1446 1447 1448 1450 1451 1453 1454 1456 1457 1458 1459 1460 1461 1462 1464 1466 1467 1468 1469 1470 1472 1474 1476 1478 1479 1481 1483 1485 1488 1489 1490 1490 1491 1491 1492 1492 1493 1493 1494 1494 1495 1495 1495 1495 1495 1495 1495 1495 1495 1495 1495 1494 1494 1494 1493 1493 1492 1492 1492 1492 1491 1491
1437 1439 1440 1441 1442 1444 1445 1446 1447 1448 1449 1450 1452 1454 1455 1456 1457 1458 1459 1460 1462 1464 1465 1466 1466 1467 1468 1470 1472 1474 1476 1478 1480 1482 1484 1486 1487 1488 1489 1490 1490 1491 1491 1492 1492 1493 1493 1494 1494 1495 1495 1495 1495 1495 1495 1494 1494 1494 1493 1493 1493 1492 1492 1491 1491 1490 1490 1490 1490
1435 1436 1438 1439 1440 1443 1445 1446 1447 1448 1448 1450 1451 1452 1454 1455 1455 1457 1458 1460 1461 1463 1464 1464 1465 1465 1467 1469 1471 1473 1476 1478 1480 1482 1484 1485 1486 1487 1488 1489 1490 1490 1490 1490 1491 1492 1492 1493 1493 1494 1494 1494 1494 1494 1494 1494 1493 1493 1492 1492 1491 1491 1491 1490 1490 1490 1489 1489 1489
1433 1434 1435 1437 1440 1442 1444 1446 1446 1447 1448 1449 1450 1451 1452 1453 1455 1456 1458 1459 1460 1462 1462 1463 1463 1465 1467 1469 1470 1473 1475 1478 1480 1482 1483 1484 1485 1486 1487 1488 1489 1489 1490 1490 1490 1491 1492 1492 1493 1493 1493 1493 1493 1493 1493 1493 1492 1492 1491 1491 1490 1490 1490 1489 1489 1488 1488 1488 1487
1430 1432 1435 1437 1440 1442 1444 1445 1446 1446 1447 1448 1449 1450 1451 1452 1454 1455 1457 1459 1460 1461 1462 1463 1464 1466 1467 1469 1471 1473 1476 1479 1480 1482 1483 1484 1485 1486 1487 1488 1489 1489 1489 1489 1490 1490 1491 1492 1492 1492 1492 1492 1492 1492 1492 1491 1491 1490 1490 1489 1489 1489 1488 1488 1487 1487 1486 1486 1486
1430 1432 1435 1438 1440 1442 1443 1444 1445 1445 1446 1446 1448 1449 1450 1451 1453 1455 1456 1458 1459 1460 1461 1463 1464 1466 1468 1469 1471 1474 1476 1478 1480 1481 1482 1483 1484 1485 1487 1488 1489 1489 1489 1489 1490 1490 1490 1491 1491 1491 1491 1491 1491 1491 1491 1490 1490 1489 1489 1488 1488 1487 1487 1487 1486 1486 1485 1485 1485
1430 1433 1435 1438 1440 1442 1443 1444 1444 1444 1445 1445 1446 1447 1449 1450 1452 1454 1456 1457 1458 1459 1460 1462 1464 1465 1467 1469 1471 1473 1475 1477 1478 1480 1481 1483 1484 1485 1487 1488 1488 1488 1488 1489 1489 1490 1490 1490 1490 1490 1490 1490 1490 1490 1490 1489 1489 1488 1488 1487 1487 1486 1486 1486 1485 1485 1484 1484 1484
1431 1434 1436 1437 1439 1441 1442 1443 1443 1443 1443 1444 1445 1446 1448 1450 1452 1453 1455 1456 1457 1458 1460 1461 1462 1464 1466 1468 1470 1472 1474 1475 1477 1479 1480 1482 1484 1486 1487 1488 1488 1488 1488 1488 1489 1489 1489 1490 1490 1490 1490 1490 1489 1489 1489 1488 1488 1487 1487 1486 1486 1486 1485 1485 1485 1484 1483 1483 1482
1431 1434 1435 1436 1438 1439 1440 1441 1441 1441 1442 1442 1444 1445 1447 1449 1451 1452 1454 1455 1456 1457 1458 1460 1461 1462 1464 1467 1469 1471 1472 1474 1476 1478 1480 1482 1484 1486 1487 1487 1487 1487 1487 1487 1488 1488 1489 1489 1489 1489 1489 1489 1488 1488 1488 1487 1487 1486 1486 1485 1485 1485 1485 1484 1483 1483 1482 1481 1481
1431 1432 1434 1435 1436 1437 1438 1439 1439 1440 1440 1442 1443 1445 1447 1448 1450 1451 1453 1454 1455 1456 1457 1459 1460 1462 1464 1466 1468 1470 1471 1473 1475 1477 1479 1482 1484 1485 1486 1486 1486 1486 1486 1487 1487 1488 1488 1488 1488 1488 1488 1488 1487 1487 1487 1486 1486 1485 1485 1485 1484 1484 1483 1483 1482 1481 1481 1480 1480
1429 1430 1432 1433 1434 1435 1436 1437 1438 1439 1440 1441 1443 1445 1446 1448 1449 1450 1452 1454 1455 1455 1456 1458 1460 1462 1464 1465 1467 1469 1470 1473 1475 1477 1479 1482 1483 1485 1485 1485 1485 1485 1485 1486 1487 1487 1487 1487 1487 1487 1487 1486 1486 1486 1485 1485 1485 1485 1484 1484 1483 1483 1482 1481 1481 1480 1480 1479 1478
1427 1428 1430 1431 1432 1434 1435 1435 1437 1438 1439 1441 1443 1444 1446 1448 1449 1450 1452 1453 1454 1455 1457 1458 1460 1461 1463 1465 1466 1469 1471 1473 1475 1477 1479 1481 1483 1483 1484 1484 1484 1484 1485 1485 1486 1486 1486 1486 1486 1486 1486 1485 1485 1485 1484 1484 1484 1483 1483 1482 1482 1481 1481 1480 1480 1479 1478 1477 1476
1425 1426 1428 1430 1431 1432 1433 1435 1436 1437 1439 1441 1443 1444 1446 1447 1449 1450 1452 1453 1454 1455 1457 1459 1460 1461 1463 1465 1467 1469 1471 1474 1476 1478 1479 1480 1481 1482 1482 1482 1483 1484 1484 1485 1485 1485 1485 1485 1485 1485 1484 1484 1484 1483 1483 1483 1482 1482 1481 1481 1480 1480 1480 1479 1478 1477 1477 1476 1475
1424 1425 1426 1428 1429 1431 1432 1434 1435 1437 1439 1441 1442 1444 1445 1447 1449 1450 1452 1453 1454 1455 1457 1459 1460 1461 1463 1465 1468 1470 1472 1475 1476 1478 1479 1480 1480 1480 1481 1481 1482 1483 1483 1484 1484 1485 1484 1484 1484 1483 1483 1483 1482 1482 1481 1481 1480 1480 1480 1479 1479 1479 1478 1477 1477 1476 1475 1475 1474
1422 1424 1425 1427 1429 1430 1432 1434 1435 1437 1439 1441 1442 1444 1445 1447 1449 1450 1451 1453 1454 1456 1457 1459 1461 1462 1464 1466 1469 1471 1473 1475 1476 1477 1478 1479 1479 1479 1480 1480 1481 1482 1483 1483 1483 1483 1483 1483 1482 1482 1482 1481 1481 1480 1480 1479 1479 1479 1478 1478 1478 1477 1477 1476 1475 1475 1474 1473 1473
1421 1422 1424 1426 1428 1430 1432 1434 1436 1437 1439 1440 1442 1444 1445 1447 1448 1450 1451 1453 1454 1456 1458 1460 1462 1464 1466 1468 1470 1472 1473 1475 1476 1476 1477 1477 1478 1478 1479 1480 1481 1481 1482 1482 1482 1482 1482 1481 1481 1481 1480 1480 1480 1479 1478 1478 1477 1477 1477 1477 1476 1476 1475 1475 1474 1473 1473 1472 1471
1420 1422 1425 1426 1429 1430 1433 1434 1436 1437 1439 1440 1442 1444 1445 1447 1448 1449 1451 1453 1455 1457 1460 1462 1464 1466 1467 1469 1470 1472 1473 1475 1475 1475 1476 1476 1477 1478 1479 1479 1480 1480 1481 1481 1481 1481 1480 1480 1480 1480 1479 1478 1478 1477 1477 1476 1476 1476 1476 1475 1475 1474 1474 1473 1473 1472 1471 1470 1470
1421 1423 1425 1427 1429 1431 1433 1434 1436 1437 1439 1441 1442 1444 1445 1447 1448 1450 1452 1454 1456 1459 1461 1463 1465 1466 1468 1468 1470 1471 1473 1474 1475 1475 1475 1475 1476 1477 1478 1479 1479 1480 1480 1480 1480 1480 1479 1479 1478 1478 1477 1477 1476 1476 1475 1475 1475 1475 1475 1474 1473 1473 1472 1471 1471 1470 1470 1469 1468
1422 1424 1426 1428 1430 1431 1433 1434 1436 1438 1440 1441 1443 1444 1445 1447 1449 1451 1453 1455 1457 1459 1461 1463 1465 1466 1467 1468 1470 1471 1473 1473 1473 1474 1474 1475 1476 1477 1477 1478 1478 1479 1479 1479 1478 1478 1478 1477 1476 1476 1475 1475 1475 1475 1475 1475 1474 1474 1473 1472 1472 1471 1470 1470 1469 1469 1468 1467 1466
1423 1425 1427 1428 1430 1431 1433 1435 1436 1438 1440 1441 1443 1445 1446 1448 1451 1453 1454 1456 1458 1460 1461 1463 1465 1466 1468 1469 1470 1471 1471 1472 1472 1473 1474 1475 1475 1476 1477 1477 1477 1477 1477 1477 1477 1476 1476 1475 1475 1474 1474 1474 1474 1474 1474 1473 1473 1472 1472 1471 1470 1470 1469 1468 1467 1467 1466 1465 1465
1424 1425 1427 1428 1430 1431 1433 1435 1437 1438 1440 1441 1443 1445 1448 1450 1452 1453 1455 1456 1458 1460 1461 1463 1465 1467 1468 1470 1470 1470 1470 1471 1471 1472 1473 1474 1475 1475 1476 1476 1476 1476 1476 1475 1475 1475 1474 1474 1473 1473 1473 1473 1473 1473 1472 1472 1471 1471 1470 1470 1469 1468 1467 1466 1465 1465 1464 1463 1463
1424 1425 1427 1428 1430 1432 1434 1435 1437 1439 1440 1442 1444 1447 1449 1451 1452 1454 1455 1457 1459 1460 1462 1464 1466 1467 1468 1469 1469 1469 1470 1470 1471 1471 1472 1473 1474 1475 1475 1475 1475 1475 1474 1474 1474 1473 1473 1472 1472 1472 1472 1472 1472 1471 1471 1470 1470 1469 1469 1468 1467 1466 1465 1465 1464 1463 1462 1462 1461
1424 1426 1427 1429 1430 1433 1435 1436 1438 1440 1442 1444 1445 1447 1449 1451 1452 1454 1456 1458 1460 1462 1464 1465 1467 1467 1468 1468 1469 1469 1469 1470 1470 1471 1472 1472 1473 1474 1474 1474 1474 1473 1473 1473 1472 1472 1472 1472 1471 1471 1471 1471 1470 1470 1470 1469 1468 1468 1467 1466 1465 1465 1464 1463 1462 1462 1461 1460 1460
1425 1426 1428 1430 1432 1434 1436 1438 1440 1441 1443 1445 1446 1448 1449 1451 1453 1455 1456 1459 1461 1463 1465 1466 1467 1467 1468 1468 1468 1469 1469 1470 1470 1470 1471 1471 1472 1472 1473 1473 1472 1472 1471 1471 1471 1471 1471 1471 1470 1470 1470 1470 1469 1469 1468 1467 1467 1466 1465 1465 1464 1463 1463 1462 1461 1460 1459 1459 1458
1425 1427 1429 1431 1433 1435 1437 1439 1440 1442 1444 1446 1447 1448 1450 1451 1453 1455 1457 1460 1462 1464 1465 1466 1467 1467 1467 1468 1468 1469 1469 1469 1470 1470 1470 1470 1470 1471 1471 1471 1470 1470 1470 1470 1470 1470 1470 1470 1469 1469 1469 1468 1468 1467 1466 1466 1465 1465 1464 1463 1463 1462 1461 1460 1460 1459 1458 1457 1457
1427 1429 1430 1432 1433 1435 1437 1439 1441 1443 1445 1447 1448 1450 1451 1452 1454 1456 1459 1461 1463 1465 1465 1466 1466 1467 1467 1467 1468 1468 1468 1469 1469 1469 1469 1469 1469 1469 1469 1469 1469 1469 1469 1470 1469 1469 1469 1469 1468 1468 1467 1467 1466 1466 1465 1465 1464 1463 1463 1462 1461 1460 1460 1459 1458 1457 1457 1456 1455
1428 1429 1430 1432 1434 1436 1438 1440 1442 1445 1446 1448 1449 1451 1453 1454 1456 1458 1460 1462 1463 1464 1465 1465 1466 1466 1467 1467 1467 1468 1468 1468 1468 1468 1468 1468 1468 1468 1468 1468 1468 1469 1469 1469 1468 1468 1468 1467 1467 1466 1466 1465 1465 1465 1464 1463 1462 1462 1461 1460 1460 1459 1458 1458 1457 1456 1455 1455 1454
1428 1429 1431 1433 1435 1437 1439 1441 1444 1446 1447 1449 1451 1453 1454 1456 1458 1460 1461 1462 1463 1464 1465 1465 1466 1466 1466 1467 1467 1467 1467 1467 1467 1467 1467 1467 1467 1467 1467 1467 1467 1468 1468 1467 1467 1467 1466 1466 1465 1465 1465 1464 1464 1463 1462 1462 1461 1460 1460 1459 1459 1458 1457 1456 1456 1455 1455 1454 1453
1430 1430 1432 1434 1436 1439 1441 1443 1445 1447 1449 1451 1453 1454 1455 1457 1459 1460 1461 1462 1463 1464 1464 1465 1465 1466 1466 1466 1466 1466 1466 1466 1466 1466 1466 1466 1466 1466 1466 1466 1467 1466 1466 1466 1466 1465 1465 1465 1464 1464 1463 1463 1462 1461 1461 1460 1460 1459 1458 1458 1457 1457 1456 1455 1455 1454 1453 1453 1452
1431 1433 1434 1435 1438 1440 1443 1445 1447 1449 1451 1452 1454 1455 1456 1458 1459 1460 1461 1462 1463 1464 1464 1465 1465 1465 1465 1465 1465 1465 1465 1465 1465 1465 1466 1466 1466 1466 1466 1466 1466 1465 1465 1465 1465 1465 1464 1464 1463 1462 1462 1461 1461 1460 1459 1459 1458 1458 1457 1457 1456 1455 1455 1454 1453 1453 1452 1451 1451
1434 1435 1436 1437 1439 1441 1444 1446 1449 1450 1451 1453 1454 1456 1457 1459 1460 1460 1461 1462 1463 1464 1464 1464 1465 1465 1465 1465 1465 1465 1465 1465 1465 1465 1465 1465 1465 1465 1465 1465 1465 1465 1465 1464 1464 1464 1463 1462 1462 1461 1460 1460 1459 1459 1458 1458 1457 1456 1456 1455 1455 1454 1454 1453 1452 1451 1451 1450 1450
1435 1437 1438 1439 1441 1443 1445 1447 1449 1451 1452 1454 1455 1457 1458 1459 1460 1461 1461 1462 1463 1463 1463 1464 1464 1464 1464 1464 1464 1464 1464 1464 1465 1465 1465 1465 1465 1465 1465 1465 1465 1464 1464 1463 1463 1462 1462 1461 1460 1460 1459 1458 1458 1457 1457 1456 1456 1455 1455 1454 1454 1453 1452 1452 1451 1450 1450 1449 1448
1437 1439 1440 1441 1443 1445 1447 1449 1450 1452 1454 1456 1457 1458 1459 1460 1460 1461 1461 1462 1462 1463 1463 1463 1463 1463 1463 1463 1463 1464 1464 1464 1464 1464 1464 1464 1464 1464 1464 1464 1464 1463 1463 1462 1462 1461 1460 1460 1459 1458 1458 1457 1457 1456 1456 1455 1455 1454 1454 1453 1452 1452 1451 1450 1450 1449 1448 1447 1447